FREGAT DEB, 45889

Orbit data source: Space-Track

FREGAT DEB, 45889 is space debris in LEO originally from a launch on Mon, 18 Jul 2011 UTC launched from the Tyuratam Missile And Space Complex (TTMTR). Debris objects in space refer to the collection of defunct objects orbiting the Earth. Examples of debris include non-operational satellites, rocket bodies, and fragments generated from explosions, collisions, or faulty payload assembly.

Loading next visibility...
Identifier
45889, 2011-037DJ
Orbit
LEO
Country
Flag of CISCIS
Related business
Manufacturer
Lavochkin
Mission
Spacecraft
Bus & Motor
Unknown
Mass
Unknown
Launch date (UTC)
2011-07-18 (14 years ago)
Launch vehicle
Unknown
Launch site
Tyuratam Missile And Space Complex (TTMTR)
Object type
Payload
Rocket body
Debris
Shape & HBR
Unknown shape, 0.1 m
Radar Cross Section
Small (<0.1 m²)

Expand to show TLE details & history
Last TLE update: 2 days ago

TLE from 2 days ago
0 FREGAT DEB
1 45889U 11037DJ  25305.63021122  .00103977  00000-0  10436-1 0  9990
2 45889  51.3353 158.9629 0757365 340.6955  16.6632 13.77489378231413
Epoch: 2025-11-01T15:07Z
TLE epoch observation values (Epoch: 2025-11-01T15:07:30.249Z)
Latitude
-0.00007°
Longitude
-109.07073°
Altitude
444.023 km
Speed
7.917 km/s
True Right ascension
10h 35m 51s
True Declination
0° 00' 00"
Sunlit
Object was in daylight at epoch
Visualization orbit readout
Latitude
Unknown
Longitude
Unknown
Altitude
Unknown
Speed
Unknown
Apparent Right ascension
Unknown
Apparent Declination
Unknown
Sunlit
N/A
Visualization observer readout
Local Sidereal Time
06:01:55
Azimuth
Unknown
Elevation
Unknown
Doppler factor
Unknown
Orbital elements
Apogee altitude
1,530.1 km
Perigee altitude
416.552 km
Semi-major axis
7,351.463 km
Eccentricity
0.07574
Inclination
51.3353°
RAAN
158.9629°
Arg. of periapsis
340.6955°
True anomaly
19.39784°
Mean anomaly
16.6632°
Eccentric anomaly
18.00446°
Mean motion
3.44336 °/min
Orbital period
104.55 mins
BSTAR
0.010436
Loading maneuver chart data...
Computing Atmospheric mass density...

Documentation

Showing up to 5 results
|